SCP
0 0 0 0 0 0 1 1 1 1 1 1 1 1 1 1 1 1 1 1 1 1 0 0 0 0 0 0 0 0 0 0 0 0 0 0 0 0 0 0 0 0 0
0 0 0 0 0 0 1 1 1 1 1 1 1 1 1 1 1 1 1 1 1 1 1 0 0 0 0 0 0 0 1 0 0 0 0 0 0 0 0 0 0 0 0
0 0 0 0 0 0 0 1 1 1 1 1 1 1 1 1 1 1 1 1 1 1 1 0 0 0 0 0 0 0 0 0 0 0 0 0 0 0 0 0 0 0 0
0 0 0 0 0 0 0 0 1 1 1 1 1 1 1 1 0 0 0 0 1 1 1 1 0 0 0 0 0 0 0 0 0 0 0 0 0 0 0 0 0 0 0
0 0 0 0 0 0 0 0 0 1 1 1 1 1 1 0 0 0 0 0 1 1 1 1 1 0 0 0 0 0 0 0 0 0 0 0 0 0 0 0 0 0 0
0 0 0 0 0 0 0 0 0 0 0 0 0 0 0 0 0 0 0 0 0 1 1 1 1 1 0 0 0 0 0 0 0 0 0 0 0 0 0 0 0 0 0
0 0 0 0 0 0 0 0 0 0 0 0 0 0 0 0 0 0 0 0 0 0 0 1 1 1 0 0 0 0 0 0 0 0 0 0 0 0 0 0 0 0 0
0 0 0 0 0 0 0 0 0 0 0 0 0 0 0 0 0 0 0 0 0 0 0 0 0 1 0 0 0 0 0 0 0 0 0 0 0 0 0 0 0 0 0
0 0 0 0 0 0 0 0 0 0 0 0 0 0 0 0 0 0 0 0 0 0 0 0 0 0 0 0 0 0 0 0 0 0 0 0 0 0 0 0 0 0 0
0 0 0 0 0 0 0 0 0 0 0 0 0 0 0 0 0 0 0 0 0 0 0 0 0 0 0 0 0 0 0 0 0 0 0 0 0 0 0 0 0 0 0
0 0 0 0 0 0 0 0 0 0 0 0 0 0 0 0 0 0 0 0 0 0 0 0 0 0 0 0 0 0 0 0 0 0 0 0 0 0 0 0 0 0 0
0 0 0 0 0 0 0 0 0 0 0 0 0 0 0 0 0 0 0 0 0 0 0 0 0 0 0 0 0 0 0 0 0 0 0 0 0 0 0 0 0 0 0
0 0 0 0 0 0 0 0 0 0 0 0 0 0 0 0 0 0 0 0 0 0 0 0 0 0 0 0 0 0 0 0 0 0 0 0 0 0 0 0 0 0 0
0 0 0 0 0 0 0 0 0 0 0 0 0 0 0 0 0 0 0 0 0 0 0 0 0 0 0 0 0 0 0 0 0 0 0 0 0 0 0 0 0 0 0
0 0 0 0 0 0 0 0 0 0 0 0 0 0 0 0 0 0 0 0 0 0 0 0 0 0 0 0 0 0 0 0 0 0 0 0 0 0 0 0 0 0 0
0 0 0 0 0 0 0 0 0 0 0 0 0 0 0 0 0 0 0 0 0 0 0 0 0 0 0 0 0 0 0 0 0 0 0 0 0 0 0 0 0 0 0
0 0 0 0 0 0 0 0 0 0 0 0 0 0 0 0 0 0 0 0 0 0 0 0 0 0 0 0 0 0 0 0 0 0 0 0 0 0 0 0 0 0 0
0 0 0 0 0 0 0 0 0 0 0 0 0 0 0 0 0 0 0 0 0 0 0 0 0 0 0 0 0 0 0 0 0 0 0 0 0 0 0 0 0 0 0
0 0 0 0 0 0 0 0 0 0 0 0 0 0 0 0 0 0 0 0 0 0 0 0 0 0 0 0 0 0 0 0 0 0 0 0 0 0 0 0 0 0 0
0 0 0 0 0 0 0 0 0 0 0 0 0 0 0 0 0 0 0 0 0 0 0 0 0 0 0 0 0 0 0 0 0 0 0 0 0 0 0 0 0 0 0
0 0 0 0 0 0 0 0 0 0 0 0 0 0 0 0 0 0 0 0 0 0 0 0 0 0 0 0 0 0 0 0 0 0 0 0 0 0 0 0 0 0 0
0 0 0 0 0 0 0 0 0 0 0 0 0 0 0 0 0 0 0 0 0 0 0 0 0 0 0 0 0 0 0 0 0 0 0 0 0 0 0 0 0 0 0
0 0 0 0 0 0 0 0 0 0 0 0 0 0 0 0 0 0 0 0 0 0 0 0 0 0 0 0 0 0 0 0 0 0 0 0 0 0 0 0 0 0 0
0 0 0 0 0 0 0 0 0 0 0 0 0 0 0 0 0 0 0 0 0 0 0 0 0 0 0 0 0 0 0 0 0 0 0 0 0 0 0 0 0 0 0
0 0 0 0 0 0 0 0 0 0 0 0 0 0 0 0 0 0 0 0 0 0 0 0 0 0 0 0 0 0 0 0 0 0 0 0 0 0 0 0 0 0 0
0 0 0 0 0 0 0 0 0 0 0 0 0 0 0 0 0 0 0 0 0 0 0 0 0 0 0 0 0 0 0 0 0 0 0 0 0 0 0 0 0 0 0
Wind_Speed
5 3 3 3 2 3 4 5 5 5 4 3 3 2 2 1 1 1 1 2 2 2 2 1 1 1 1 1 2 2 2 2 1 2 2 2 1 1 1 1 2 2 2
2 2 3 3 4 4 5 5 6 6 6 4 3 2 2 2 2 2 2 2 2 2 2 2 1 1 1 2 2 2 1 1 1 1 1 1 2 2 1 1 1 1 2
5 4 3 4 4 5 5 5 6 5 5 4 3 2 2 1 1 1 1 1 2 2 2 2 2 2 1 2 3 3 3 2 0 1 1 2 2 2 2 1 1 1 1
4 3 3 4 5 5 5 4 5 5 5 5 5 5 4 3 3 2 2 2 2 2 3 3 2 2 2 2 3 3 2 3 2 0 0 0 1 1 1 2 1 1 1
3 3 3 4 4 3 4 3 4 4 5 5 5 5 4 3 2 2 3 3 2 2 3 3 3 3 2 3 3 3 3 2 3 2 1 0 0 1 1 2 2 2 1
2 2 1 1 1 1 2 2 3 4 4 5 5 5 5 4 3 3 3 3 2 2 3 3 3 3 3 3 3 3 4 4 3 2 2 2 2 1 1 2 2 3 2
3 3 2 2 1 1 2 2 3 4 4 5 5 5 5 5 6 5 5 4 3 3 4 4 4 4 4 4 3 3 4 5 5 4 3 3 2 2 1 1 2 2 2
4 4 3 2 2 2 2 2 3 3 4 5 5 4 4 4 4 5 4 5 4 4 4 5 4 4 4 4 4 3 4 4 5 5 4 3 3 2 2 2 2 2 2
4 4 4 3 3 2 2 2 3 3 3 4 4 4 4 4 5 5 4 4 4 4 4 5 5 5 5 5 5 4 4 4 5 5 5 4 3 3 2 2 3 3 3
4 5 4 4 4 2 2 1 2 3 3 3 4 4 4 5 4 4 5 5 5 4 4 5 5 5 5 5 5 4 4 5 5 4 5 5 3 3 3 3 3 3 3
5 5 5 5 4 4 3 2 2 2 2 3 3 3 4 4 4 5 5 5 5 5 6 6 5 6 6 5 5 5 5 6 5 5 6 6 5 4 3 3 3 3 3
5 5 5 4 4 5 4 3 3 2 3 3 3 4 3 3 4 5 5 5 6 6 6 6 6 6 6 6 6 6 6 7 7 6 6 7 5 6 4 4 4 4 4
5 5 5 4 5 5 5 4 4 4 3 2 3 3 3 4 5 5 5 5 5 6 6 6 7 7 7 6 6 7 7 7 7 7 7 7 7 7 5 5 5 4 4
5 5 5 5 5 5 4 5 5 4 3 2 3 4 4 5 5 5 5 5 5 6 6 7 7 7 7 7 7 7 7 7 7 7 7 7 8 8 7 6 6 5 5
6 6 6 6 6 6 5 5 5 4 3 3 3 4 4 4 4 4 5 5 5 6 6 6 6 6 6 7 7 7 7 7 7 7 7 7 9 11 9 7 6 6 5
7 6 6 6 6 6 6 6 6 5 3 4 4 4 3 3 4 4 4 5 5 5 5 6 6 6 6 10 12 9 7 7 7 7 6 7 8 11 12 12 11 10 8
7 7 6 6 7 6 6 6 6 5 4 4 4 4 4 4 4 4 4 5 5 5 5 6 6 7 8 11 12 12 7 7 7 7 6 6 6 9 7 9 10 10 11
7 7 6 6 6 6 6 5 5 5 4 5 5 4 4 4 4 4 4 5 4 5 5 6 6 7 8 11 11 12 7 6 7 7 7 7 7 7 8 7 6 6 7
6 6 6 6 6 6 6 5 5 5 5 5 5 5 4 5 5 5 5 5 4 5 5 6 6 7 7 11 11 10 5 5 7 7 7 8 8 11 12 8 7 7 6
6 5 6 6 6 6 5 5 5 5 6 6 5 5 5 5 5 6 5 5 5 5 5 6 5 6 7 10 12 10 5 6 6 6 7 10 10 12 12 9 8 8 7
6 6 5 5 6 6 5 6 6 7 7 6 6 5 5 5 5 5 5 4 5 4 5 5 5 6 7 9 11 11 6 6 6 6 6 6 12 12 12 11 8 9 7
7 6 6 6 6 5 5 6 7 8 7 6 6 5 5 5 4 4 4 4 4 4 5 4 5 4 6 8 9 12 11 9 6 6 5 6 11 12 12 9 9 10 7
7 6 6 7 6 5 5 7 8 7 6 6 6 6 5 4 4 4 5 4 4 4 4 4 4 4 4 5 10 11 11 11 7 5 8 9 11 10 8 10 10 7 4
7 7 7 7 7 7 6 6 7 6 6 6 6 5 4 4 4 4 4 4 4 4 4 5 4 4 4 4 4 5 6 7 7 5 6 9 9 7 6 6 6 4 5
7 7 7 8 9 8 8 8 7 6 6 6 5 5 4 4 4 4 4 5 5 5 6 5 4 4 5 6 7 5 4 4 5 4 3 3 3 4 3 3 4 4 4
7 7 8 8 9 8 9 8 7 6 5 5 5 4 4 4 4 4 4 6 6 8 10 9 8 6 8 8 9 9 9 8 8 5 4 4 5 5 5 5 4 4 5
Wind_Direction
254 225 205 186 165 177 181 184 179 174 162 161 166 165 181 178 180 182 165 172 158 142 135 114 91 107 136 142 120 102 89 59 41 58 32 2 3 50 34 27 39 32 23
267 229 208 191 189 191 194 187 187 182 181 179 175 170 166 182 189 185 170 185 171 156 167 157 167 134 146 149 145 120 119 74 48 76 81 0 333 344 0 11 44 28 17
234 225 210 207 202 203 203 202 191 184 186 173 149 122 103 95 141 186 189 188 189 178 182 180 175 171 165 189 184 176 153 155 188 54 128 147 225 308 312 330 358 12 13
238 223 217 217 213 214 207 204 193 182 180 172 171 170 180 194 203 196 196 198 194 203 197 185 184 188 190 207 201 182 178 162 177 236 8 132 156 186 280 301 310 335 336
249 233 225 224 225 215 204 200 195 184 180 180 183 187 198 201 193 186 195 202 204 209 213 197 193 199 203 210 217 192 182 183 183 180 182 89 355 211 196 261 279 299 298
311 289 267 240 248 225 205 199 197 194 185 185 186 192 198 192 189 200 206 209 213 214 219 215 203 204 208 214 217 207 193 194 193 190 188 184 194 207 204 240 266 279 290
347 343 339 324 285 241 214 205 200 212 194 191 196 201 202 197 201 204 208 210 215 221 219 221 216 213 215 217 216 213 208 197 197 199 207 207 212 202 215 229 260 280 294
353 348 333 318 298 264 233 213 209 223 204 197 207 208 207 206 213 212 210 213 218 221 214 217 222 222 217 216 208 215 218 209 205 211 208 211 215 209 209 205 207 268 280
356 351 348 342 324 298 259 230 222 233 223 209 213 213 212 215 220 219 216 220 223 224 211 213 216 221 219 214 206 216 216 215 214 214 211 215 218 217 218 217 206 206 239
350 349 349 346 340 332 320 296 236 234 242 221 218 230 226 226 224 217 220 220 221 221 215 218 216 219 223 217 209 216 216 213 223 216 208 213 215 214 217 221 227 223 220
339 342 345 347 347 348 344 331 296 268 259 234 228 232 234 231 226 226 225 223 220 215 217 217 217 216 219 216 211 213 214 215 222 223 213 217 210 211 213 216 222 227 217
334 336 338 345 350 347 343 332 317 294 273 248 237 241 243 234 231 235 233 225 223 219 218 215 217 219 218 214 213 215 216 216 219 222 219 219 215 215 213 214 221 223 220
337 340 341 340 338 335 332 327 316 298 288 260 241 248 247 238 237 239 238 232 227 224 221 215 218 219 217 215 220 219 219 220 224 220 221 219 211 217 217 215 218 223 229
329 332 331 329 328 327 324 319 312 303 295 278 254 250 247 244 244 244 238 234 229 225 223 222 222 222 220 220 222 223 222 220 225 225 224 222 214 215 214 216 216 216 222
321 322 322 322 323 324 323 317 308 306 298 279 268 261 261 255 249 246 242 238 234 232 228 227 227 226 223 220 217 219 221 218 223 227 228 229 226 223 220 218 210 208 214
308 312 315 316 314 313 314 313 307 305 298 276 270 275 274 266 257 252 248 243 239 235 230 229 228 230 232 231 228 223 219 219 220 225 228 232 234 230 232 231 225 217 213
304 306 305 302 304 304 305 302 299 301 293 282 279 275 269 266 263 262 258 249 243 238 237 234 229 231 236 236 234 230 222 217 219 221 223 230 234 230 227 231 232 235 234
304 303 302 302 304 301 301 297 296 295 289 282 277 273 266 266 267 262 258 255 247 241 241 240 234 235 239 237 238 236 228 218 219 219 219 223 228 227 222 219 222 228 234
299 297 298 299 304 305 303 305 302 297 288 279 275 272 265 266 265 261 258 258 252 247 245 242 236 235 241 237 237 236 225 221 223 223 222 222 225 230 226 218 216 224 236
308 307 308 307 308 309 311 305 302 300 291 284 280 276 267 260 258 258 260 261 253 253 248 248 242 238 240 239 236 233 225 222 224 225 225 228 229 231 231 219 209 216 224
316 317 315 311 308 311 315 306 303 296 291 291 286 277 267 261 258 259 258 255 255 255 248 250 251 243 240 241 236 232 224 220 221 223 224 226 231 234 237 233 218 220 218
323 324 319 313 312 313 312 306 301 299 298 295 288 280 271 266 265 259 261 256 249 252 251 249 253 250 245 243 240 238 237 235 225 223 222 222 228 233 236 235 229 225 222
323 321 316 313 315 314 308 300 300 304 304 299 292 284 279 273 270 261 260 258 247 247 253 248 249 253 247 242 243 243 242 240 233 227 227 229 230 231 231 233 232 224 211
321 320 319 316 315 317 313 300 301 305 304 300 298 293 283 280 274 265 258 251 247 247 249 248 249 253 250 243 236 232 236 234 232 232 231 231 232 231 230 228 227 216 205
318 317 315 311 311 314 313 310 308 306 301 300 299 297 286 277 274 268 258 253 244 242 249 250 246 246 247 244 244 241 230 218 216 208 210 209 206 211 212 214 211 205 204
316 318 317 314 313 314 313 313 310 305 300 301 302 296 290 282 277 276 282 275 269 267 264 264 261 258 256 258 253 249 247 243 232 220 208 210 212 214 213 213 212 209 209